Zurück zum Katalog

GRIFON-3

AktivWissenschaftSSO
NORAD 67282·PAYLOAD·🇷🇺 Russia
Dieser Satellitenname wurde noch nicht durch offizielle Quellen bestätigt.

Gestartet Dec 28, 2025 von Vostochny Cosmodrome

Loading…

Nächste Überflüge (nächste 24 Stunden)

TLE

AktuellSource: Space-Track

Epoche: Sep 14, 2026, 11:20 UTC

1 67282U 25313AL  26257.47289378  .00004170  00000-0  17511-3 0  9999
2 67282  97.3856 330.8577 0012007  50.6832 309.5468 15.23939382 39554

Verfolge GRIFON-3 in Echtzeit mit AllMySat

Download on the App Store